Regional Weather Roundup
Issued by NWS

Home | Current Version | Previous Version | Text Only | Print | Product List | Glossary On
Versions: 1 2 3 4 5 6 7 8 9 10 11 12 13 14 15 16 17 18 19 20 21 22 23 24 25 26 27 28 29 30 31 32 33 34 35 36 37 38 39 40 41 42 43 44 45 46 47 48 49 50
000
ASUS43 KMKX 240111
RWRWI

WISCONSIN REGIONAL WEATHER ROUNDUP
NATIONAL WEATHER SERVICE MILWAUKEE/SULLIVAN WI
800 PM CDT TUE MAY 23 2017

NOTE: "FAIR" INDICATES FEW OR NO CLOUDS BELOW 12,000 FEET WITH NO
SIGNIFICANT WEATHER AND/OR OBSTRUCTIONS TO VISIBILITY.

WIZ001-002-006>008-014>016-023>028-240200-
NORTHWEST WISCONSIN

CITY           SKY/WX    TMP DP  RH WIND       PRES   REMARKS
SUPERIOR ARPT  NOT AVBL
ASHLAND        CLOUDY    46  43  89 NE7       29.89S
HAYWARD        CLOUDY    49  43  80 NE18G25   29.86R
SIREN          MOCLDY    56  44  63 NE12      29.84S
CUMBERLAND     CLOUDY    54  41  62 NE13      29.82R
RICE LAKE      CLOUDY    54  44  68 N12G18    29.82S
CHETEK         CLOUDY    54  47  78 NE5G18    29.80S
LADYSMITH      CLOUDY    53  44  72 N14G20    29.83R
EAU CLAIRE     CLOUDY    57  44  62 NE9       29.77R
MENOMONIE      CLOUDY    56  47  72 N8        29.79R
NEW RICHMOND   CLOUDY    55  45  70 N13       29.81S
OSCEOLA        CLOUDY    58  45  61 NE12G17   29.84S
$$

WIZ003>005-009-010-017-018-240200-
NORTH CENTRAL WISCONSIN

CITY           SKY/WX    TMP DP  RH WIND       PRES   REMARKS
MANITOWISH WTR CLOUDY    50  44  80 NE6       29.83R
ARBOR VITAE    CLOUDY    52  45  78 N7        29.81S
WOODRUFF       CLOUDY    52  45  78 N7        29.81S
RHINELANDER    CLOUDY    55  44  66 N9        29.80R
EAGLE RIVER    CLOUDY    51  43  72 N10       29.81S
LAND O LAKES   CLOUDY    51  45  79 N13       29.84R
PHILLIPS       CLOUDY    51  45  79 N9        29.80S
TOMAHAWK       CLOUDY    53  43  70 N7        29.80R
MEDFORD        CLOUDY    53  46  75 NE7       29.77R
MERRILL        CLOUDY    55  46  70 CALM      29.78S
$$

WIZ029-030-035-036-043>047-240200-
CENTRAL WISCONSIN

CITY           SKY/WX    TMP DP  RH WIND       PRES   REMARKS
WAUSAU         CLOUDY    54  45  71 E6        29.76R
MOSINEE        CLOUDY    54  46  76 E7        29.78R
MARSHFIELD     CLOUDY    54  45  71 E8        29.76R
STEVENS POINT  CLOUDY    51  44  76 E7        29.78R
WAUPACA        RAIN      51  48  88 NE6       29.78S
WAUTOMA        LGT RAIN  50  49  96 NE12      29.75S
WISC RAPIDS    CLOUDY    52  45  77 E12G20    29.77R
CAMP DOUGLAS   LGT RAIN  52  50  93 E7        29.74S
$$

WIZ011>013-019>022-031-037>040-048>050-240200-
NORTHEAST WISCONSIN

CITY           SKY/WX    TMP DP  RH WIND       PRES   REMARKS
ANTIGO         CLOUDY    51  45  79 E6        29.78S
SHAWANO        RAIN      53  49  86 E5        29.78S
OCONTO         CLOUDY    50  48  94 NE3       29.77F
STURGEON BAY   LGT RAIN  50  48  93 CALM      29.79R
GREEN BAY      LGT RAIN  50  50 100 NE7       29.78S
MANITOWOC      HVY RAIN  49  46  90 N7        29.77S
APPLETON       LGT RAIN  48  48 100 NE12      29.75S
CLINTONVILLE   RAIN      48  46  93 E3        29.78S
OSHKOSH        RAIN      51  48  89 NE14G20   29.74F FOG
$$

WIZ032>034-041-042-053>061-240200-
SOUTHWEST WISCONSIN

CITY           SKY/WX    TMP DP  RH WIND       PRES   REMARKS
LA CROSSE      LGT RAIN  55  53  93 N6        29.73S
SPARTA         RAIN      51  51  97 NE7       29.74R
VIROQUA        CLOUDY    53  51  92 MISG      29.73R
BOSCOBEL       LGT RAIN  59  52  77 NE5       29.70S
PRAIRIE DU CHI PTCLDY    56  51  80 NW5       29.71R
PLATTEVILLE    MOCLDY    55  51  89 N7        29.70S
$$

WIZ056-057-062-063-064-067-068-240200-
SOUTH CENTRAL WISCONSIN

CITY           SKY/WX    TMP DP  RH WIND       PRES   REMARKS
REEDSBURG      LGT RAIN  51  51 100 NE9       29.73R
BARABOO/DELLS  CLOUDY    52  49  92 NW5       29.73R
LONE ROCK      CLOUDY    55  49  80 N13       29.70R
MINERAL POINT  CLEAR     55  54  94 CALM      29.70S
MADISON        CLOUDY    56  55  97 SE3       29.70R
MIDDLETON      CLOUDY    58  55  89 N6        29.71R
WATERTOWN      CLOUDY    54  54 100 NE3       29.71S
MONROE         CLEAR     55  52  88 CALM      29.70R
JANESVILLE     MOCLDY    55  55 100 NE6       29.70R
$$

WIZ051-052-058>065-066-070>072-240200-
SOUTHEAST WISCONSIN

CITY           SKY/WX    TMP DP  RH WIND       PRES   REMARKS
MILWAUKEE      LGT RAIN  57  55  93 N7        29.73R FOG
WAUKESHA       RAIN      54  54 100 NE5       29.73S
MILWAUKEE/TIMM LGT RAIN  48  46  93 NE7       29.74R
RACINE         LGT RAIN  55  52  89 SW3       29.74R
KENOSHA        RAIN      55  53  93 CALM      29.72S FOG
FOND DU LAC    LGT RAIN  51  47  86 NE7       29.74F
SHEBOYGAN      LGT RAIN  48  47  96 NE13      29.75S
WEST BEND      LGT RAIN  48  48 100 NE9       29.73S
JUNEAU         LGT RAIN  52  51  97 NE3       29.73S
$$

LSZ147-162-240200-
LAKE SUPERIOR

STATION/POSITION TIME  TEMP    WIND        PRES    WAVE
                       AIR SEA DIR/SP/G            HT/PER
                 (UTC) (F)     (DEG/KT/KT) (MB)    (FT/S)
W MID LAKE BUOY  2350   43 37   40/  8/ 10 1012.6F   0
DEVILS ISLAND    0100   41     350/  7/  8 1013.1S
PORT WING        0030   42      20/ 13/ 15 1012.5S
SAXON HARBOR     0030   41     360/  5/  6 1012.2R
$$

LMZ867-665-643>646-240200-
LAKE MICHIGAN

STATION/POSITION TIME  TEMP    WIND        PRES    WAVE
                       AIR SEA DIR/SP/G            HT/PER
                 (UTC) (F)     (DEG/KT/KT) (MB)    (FT/S)
CHAMBERS ISLAND  0030   50     310/  9/ 10 1008.1F
N MID LAKE BUOY  0050   44 39   50/  8/  8 1009.1S   0
NORTHPORT PIER   0040   49     320/  7/  9 1008.5S
KEWAUNEE LAKESHO 0042   49      20/  6/ 11 1007.7S
SHEBOYGAN LAKESH 0100   45      10/ 14/ 15 1007.5F
PORT WASHINGTON  0030   47      40/  6/  9 1008.1S
ATWATER BUOY     0009   46     360/ 12/ 16 1006.8R
MILWAUKEE LAKESH 0050   47      10/  9/ 11   N/A
S MID LAKE BUOY  0050   50 45  360/  2/  2 1006.7R   0
KENOSHA   LAKESH 0100   54      CALM  /  3 1006.8
$$

TC  - TEMPERATURE IN CELSIUS
VSB - VISIBILITY IN STATUTE MILES
WCI - WIND CHILL INDEX
HX  - HEAT INDEX





USA.gov is the U.S. government's official web portal to all federal, state and local government web resources and services.